LIVE Streaming HD
Get Adobe Flash player
Annunci di Google
DNA SURF-SHOP
Annunci
Annunci
BodemaAuto s.r.l
BodemaAuto s.r.l
Dati meteo stazione (refresh automatico ogni minuto)
Latina(LT) VENTO: VELOCITÀ   PIOGGIA: QTA GIORNO TEMPERATURA: ATTUALE
SPOT: Latina lido
(Hotel Tirreno) Posizione su Googlemap: Latitudine 41.41 Longitudine 12.84
RAFFICA MASSIMA: QTA MENSILE: MASSIMA:
VELOCITÀ MEDIA: QTA ANNUALE: MINIMA:
DIREZIONE: UMIDITÀ: WIND CHILL:
TIPO: DEW POINT:
BEAUFORT: PRESSIONE:
I nostri partner
Annunci Privati
Latina(LT) nelle ultime ore
Applica filtri in visualizzazione Intervallo delle letture nelle ultime

Ora Direzione Vento Velocita' Vento Media Vento Raffica Max. Temperatura Wind Chill Pioggia Pressione
22:53:3243 °(NE)0 Kts0 Kts41.2 Kts9.4 °C9.4 °C0 mm1008.7 Hpa
22:47:2343 °(NE)0 Kts0 Kts41.2 Kts9.4 °C9.4 °C0 mm1008.7 Hpa
22:42:4543 °(NE)0 Kts0 Kts41.2 Kts9.3 °C9.3 °C0 mm1008.7 Hpa
22:37:1243 °(NE)0 Kts0 Kts41.2 Kts9.2 °C9.2 °C0 mm1008.7 Hpa
22:32:3642 °(NE)0 Kts0 Kts41.2 Kts9 °C9 °C0 mm1008.7 Hpa
22:28:0042 °(NE)0 Kts0 Kts41.2 Kts9.1 °C9.1 °C0 mm1008.6 Hpa
22:23:2242 °(NE)0 Kts0 Kts41.2 Kts9.4 °C9.4 °C0 mm1008.4 Hpa
22:17:14355 °(N)0 Kts0 Kts41.2 Kts9.8 °C9.8 °C0 mm1008.7 Hpa
22:12:38355 °(N)0 Kts0 Kts41.2 Kts10 °C10 °C0 mm1008.7 Hpa
22:08:03309 °(NW)0 Kts0 Kts41.2 Kts10.2 °C10.2 °C0 mm1008.7 Hpa
22:03:29309 °(NW)0 Kts0 Kts41.2 Kts10.4 °C10.4 °C0 mm1008.5 Hpa
21:57:50309 °(NW)0 Kts0 Kts41.2 Kts10.4 °C10.4 °C0 mm1008.7 Hpa
21:53:15309 °(NW)0 Kts1.2 Kts41.2 Kts10.4 °C8.3 °C0 mm1008.5 Hpa
21:47:10307 °(NW)1.2 Kts1.2 Kts41.2 Kts10.2 °C8.1 °C0 mm1008.5 Hpa
21:42:35298 °(WNW)1.2 Kts0.3 Kts41.2 Kts10 °C8.7 °C0 mm1008.7 Hpa
21:38:31292 °(WNW)1.2 Kts0.3 Kts41.2 Kts10 °C8.7 °C0 mm1008.5 Hpa
21:32:35291 °(WNW)1.2 Kts0.3 Kts41.2 Kts9.8 °C8.6 °C0 mm1008.5 Hpa
21:28:01295 °(WNW)0.3 Kts0 Kts41.2 Kts9.8 °C9.8 °C0 mm1008.5 Hpa
21:23:25323 °(NW)0 Kts0 Kts41.2 Kts9.8 °C9.8 °C0 mm1008.4 Hpa
21:17:21327 °(NNW)0 Kts0.3 Kts41.2 Kts9.8 °C8.5 °C0 mm1008.4 Hpa
21:12:47327 °(NNW)0.3 Kts0.3 Kts41.2 Kts9.9 °C8.7 °C0 mm1008.4 Hpa
21:08:13323 °(NW)1.2 Kts0 Kts41.2 Kts10.1 °C10.1 °C0 mm1008.4 Hpa
21:03:38315 °(NW)0 Kts0 Kts41.2 Kts10.1 °C10.1 °C0 mm1008.3 Hpa
20:57:29321 °(NW)0 Kts0 Kts41.2 Kts10.1 °C10.1 °C0 mm1008.2 Hpa